Location: Sungai Dangang
(2.7500°N, 113.8333°E)
Time: 04:57:48
(UTC+00:00)

Cosmos 2058 Rocket - Pass Details

Date: 16 May 2021
Orbit: 611 x 638 km, 82.5° (Epoch: 16 June)

Event Time Altitude Azimuth Distance (km) Brightness Sun altitude
Rises 20:10:59 0° 359° (N) 2,923 6.8 -29.4°
Reaches altitude 10° 20:13:14 10° 1° (N) 2,016 5.9 -28.9°
Enters shadow 20:15:54 36° 8° (N) 1,010 4.3 -28.3°
